Location: Petruro
(41.0333°N, 14.7833°E)
Time: 10:45:38
(UTC+00:00)

Cosmos 1892 Rocket - Visible Passes

Search period start: 17 August 2022 00:00
Search period end: 27 August 2022 00:00
Orbit: 606 x 632 km, 82.5° (Epoch: 17 August)

Date Brightness Start Highest point End Pass type
(mag) Time Alt. Az. Time Alt. Az. Time Alt. Az.
17 Aug 6.5 01:24:38 10° NE 01:26:48 13° ENE 01:28:58 10° E visible
17 Aug 3.7 03:00:40 10° NNW 03:05:02 56° W 03:09:24 10° S visible
18 Aug 5.8 01:40:48 10° NNE 01:44:25 23° ENE 01:48:01 10° SE visible
18 Aug 4.5 03:18:23 10° NNW 03:22:15 30° W 03:26:08 10° SSW visible
19 Aug 4.7 01:57:39 10° N 02:01:55 42° ENE 02:06:10 10° SSE visible
19 Aug 5.2 03:36:37 10° NW 03:39:23 16° W 03:42:10 10° SW visible
20 Aug 3.6 02:14:49 10° N 02:19:19 81° E 02:22:25 20° SSE visible
21 Aug 6.4 00:56:02 10° NE 00:58:25 14° ENE 01:00:47 10° ESE visible
21 Aug 3.7 02:32:15 10° NNW 02:36:37 53° W 02:38:35 30° SSW visible
22 Aug 5.6 01:12:18 10° NNE 01:16:01 25° ENE 01:17:47 19° ESE visible
22 Aug 4.5 02:50:01 10° NNW 02:53:49 28° W 02:54:53 25° WSW visible
23 Aug 4.5 01:29:12 10° N 01:33:30 45° ENE 01:34:11 41° ESE visible
23 Aug 5.2 03:08:18 10° NW 03:10:57 16° W 03:11:17 15° W visible
24 Aug 3.6 01:46:24 10° N 01:50:41 81° NNE 01:50:41 81° NNE visible
25 Aug 6.2 00:27:28 10° NE 00:30:00 15° ENE 00:30:09 15° ENE visible
25 Aug 4.2 02:03:51 10° NNW 02:07:16 42° NW 02:07:16 42° NW visible
26 Aug 5.7 00:43:50 10° NNE 00:46:47 24° NE 00:46:47 24° NE visible
26 Aug 5.1 02:21:38 10° NNW 02:23:53 22° WNW 02:23:53 22° WNW visible
